Time,TemperatureF,DewpointF,PressureIn,WindDirection,WindDirectionDegrees,WindSpeedMPH,WindSpeedGustMPH,Humidity,HourlyPrecipIn,Conditions,Clouds,dailyrainin,SoftwareType,DateUTC
2013-04-05 00:05:00,33.7,28.5,30.07,NNE,12,0.0,0.0,81,0.00,,,0.00,Wunderground v.1.15,2013-04-05 05:05:00,
2013-04-05 00:14:00,33.4,28.5,30.07,NNE,12,0.0,0.0,82,0.00,,,0.00,Wunderground v.1.15,2013-04-05 05:14:00,
2013-04-05 00:24:00,33.2,28.6,30.07,NNE,12,0.0,0.0,83,0.00,,,0.00,Wunderground v.1.15,2013-04-05 05:24:00,
2013-04-05 00:29:00,33.1,28.5,30.07,NNE,12,0.0,0.0,83,0.00,,,0.00,Wunderground v.1.15,2013-04-05 05:29:00,
2013-04-05 00:34:00,33.1,28.5,30.07,NNE,12,0.0,0.0,83,0.00,,,0.00,Wunderground v.1.15,2013-04-05 05:34:00,
2013-04-05 00:39:00,33.1,28.5,30.07,NNE,12,0.0,0.0,83,0.00,,,0.00,Wunderground v.1.15,2013-04-05 05:39:00,
2013-04-05 00:44:00,32.9,28.6,30.07,NNE,12,0.0,0.0,84,0.00,,,0.00,Wunderground v.1.15,2013-04-05 05:44:00,
2013-04-05 00:54:00,32.4,28.1,30.07,NNE,13,0.0,0.0,84,0.00,,,0.00,Wunderground v.1.15,2013-04-05 05:54:00,
2013-04-05 01:04:00,31.9,27.6,30.07,NNE,12,0.0,0.0,84,0.00,,,0.00,Wunderground v.1.15,2013-04-05 06:04:00,
2013-04-05 01:09:00,31.8,27.5,30.07,NNE,12,0.0,0.0,84,0.00,,,0.00,Wunderground v.1.15,2013-04-05 06:09:00,
2013-04-05 01:14:00,31.6,27.3,30.07,NNE,12,0.0,0.0,84,0.00,,,0.00,Wunderground v.1.15,2013-04-05 06:14:00,
2013-04-05 01:24:00,31.5,27.5,30.07,NNE,13,0.0,0.0,85,0.00,,,0.00,Wunderground v.1.15,2013-04-05 06:24:00,
2013-04-05 01:34:00,31.2,27.2,30.07,NNE,12,0.0,0.0,85,0.00,,,0.00,Wunderground v.1.15,2013-04-05 06:34:00,
2013-04-05 01:44:00,31.0,27.0,30.07,NNE,12,0.0,0.0,85,0.00,,,0.00,Wunderground v.1.15,2013-04-05 06:44:00,
2013-04-05 01:49:00,30.7,26.7,30.07,NNE,12,0.0,0.0,85,0.00,,,0.00,Wunderground v.1.15,2013-04-05 06:49:00,
2013-04-05 01:59:00,30.6,26.9,30.07,NNE,12,0.0,0.0,86,0.00,,,0.00,Wunderground v.1.15,2013-04-05 06:59:00,
2013-04-05 02:04:00,30.6,26.9,30.08,NNE,12,0.0,0.0,86,0.00,,,0.00,Wunderground v.1.15,2013-04-05 07:04:00,
2013-04-05 02:14:00,30.3,26.9,30.08,NNE,12,0.0,0.0,87,0.00,,,0.00,Wunderground v.1.15,2013-04-05 07:14:00,
2013-04-05 02:24:00,30.4,27.0,30.08,NNE,12,0.0,0.0,87,0.00,,,0.00,Wunderground v.1.15,2013-04-05 07:24:00,
2013-04-05 02:39:00,30.0,26.6,30.08,NNE,12,0.0,0.0,87,0.00,,,0.00,Wunderground v.1.15,2013-04-05 07:39:00,
2013-04-05 02:49:00,29.5,26.1,30.08,NNE,12,0.0,0.0,87,0.00,,,0.00,Wunderground v.1.15,2013-04-05 07:49:00,
2013-04-05 02:59:00,29.0,25.6,30.08,NNE,13,0.0,0.0,87,0.00,,,0.00,Wunderground v.1.15,2013-04-05 07:59:00,
2013-04-05 03:05:00,29.0,25.6,30.08,NNE,12,0.0,0.0,87,0.00,,,0.00,Wunderground v.1.15,2013-04-05 08:05:00,
2013-04-05 03:14:00,28.8,25.4,30.08,NNE,12,0.0,0.0,87,0.00,,,0.00,Wunderground v.1.15,2013-04-05 08:14:00,
2013-04-05 03:19:00,28.8,25.4,30.08,NNE,12,0.0,0.0,87,0.00,,,0.00,Wunderground v.1.15,2013-04-05 08:19:00,
2013-04-05 03:29:00,29.0,25.9,30.08,NNE,12,0.0,0.0,88,0.00,,,0.00,Wunderground v.1.15,2013-04-05 08:29:00,
2013-04-05 03:34:00,29.0,25.9,30.08,NNE,12,0.0,0.0,88,0.00,,,0.00,Wunderground v.1.15,2013-04-05 08:34:00,
2013-04-05 03:39:00,29.0,25.9,30.08,NNE,12,0.0,0.0,88,0.00,,,0.00,Wunderground v.1.15,2013-04-05 08:39:00,
2013-04-05 03:49:00,29.0,25.9,30.08,NNE,12,0.0,0.0,88,0.00,,,0.00,Wunderground v.1.15,2013-04-05 08:49:00,
2013-04-05 03:59:00,29.1,26.0,30.08,NNE,12,0.0,0.0,88,0.00,,,0.00,Wunderground v.1.15,2013-04-05 08:59:00,
2013-04-05 04:04:00,29.1,26.0,30.08,NNE,12,0.0,0.0,88,0.00,,,0.00,Wunderground v.1.15,2013-04-05 09:04:00,
2013-04-05 04:14:00,29.0,25.9,30.08,NNE,12,0.0,0.0,88,0.00,,,0.00,Wunderground v.1.15,2013-04-05 09:14:00,
2013-04-05 04:24:00,28.8,26.0,30.08,NNE,12,0.0,0.0,89,0.00,,,0.00,Wunderground v.1.15,2013-04-05 09:24:00,
2013-04-05 04:34:00,28.8,26.0,30.09,NNE,13,0.0,0.0,89,0.00,,,0.00,Wunderground v.1.15,2013-04-05 09:34:00,
2013-04-05 04:39:00,28.7,25.9,30.09,NNE,12,0.0,0.0,89,0.00,,,0.00,Wunderground v.1.15,2013-04-05 09:39:00,
2013-04-05 04:49:00,28.8,26.0,30.09,NNE,13,0.0,0.0,89,0.00,,,0.00,Wunderground v.1.15,2013-04-05 09:49:00,
2013-04-05 04:59:00,28.7,25.9,30.09,NNE,13,0.0,0.0,89,0.00,,,0.00,Wunderground v.1.15,2013-04-05 09:59:00,
2013-04-05 05:04:00,28.8,26.0,30.09,NNE,13,0.0,0.0,89,0.00,,,0.00,Wunderground v.1.15,2013-04-05 10:04:00,
2013-04-05 05:14:00,28.7,25.9,30.09,NNE,12,0.0,0.0,89,0.00,,,0.00,Wunderground v.1.15,2013-04-05 10:14:00,
2013-04-05 05:19:00,28.5,25.7,30.09,NNE,13,0.0,0.0,89,0.00,,,0.00,Wunderground v.1.15,2013-04-05 10:19:00,
2013-04-05 05:29:00,28.4,25.6,30.09,NNE,12,0.0,0.0,89,0.00,,,0.00,Wunderground v.1.15,2013-04-05 10:29:00,
2013-04-05 05:39:00,28.2,25.4,30.09,NNE,12,0.0,0.0,89,0.00,,,0.00,Wunderground v.1.15,2013-04-05 10:39:00,
2013-04-05 05:49:00,28.4,25.8,30.10,NNE,13,0.0,0.0,90,0.00,,,0.00,Wunderground v.1.15,2013-04-05 10:49:00,
2013-04-05 05:59:00,28.4,25.6,30.10,NNE,12,0.0,0.0,89,0.00,,,0.00,Wunderground v.1.15,2013-04-05 10:59:00,
2013-04-05 06:04:00,28.4,25.6,30.10,NNE,12,0.0,0.0,89,0.00,,,0.00,Wunderground v.1.15,2013-04-05 11:04:00,
2013-04-05 06:09:00,28.2,25.4,30.10,NNE,12,0.0,0.0,89,0.00,,,0.00,Wunderground v.1.15,2013-04-05 11:09:00,
2013-04-05 06:19:00,27.9,25.1,30.10,NNE,13,0.0,0.0,89,0.00,,,0.00,Wunderground v.1.15,2013-04-05 11:19:00,
2013-04-05 06:29:00,27.9,25.3,30.10,NNE,12,0.0,0.0,90,0.00,,,0.00,Wunderground v.1.15,2013-04-05 11:29:00,
2013-04-05 06:34:00,27.9,25.3,30.11,NNE,13,0.0,0.0,90,0.00,,,0.00,Wunderground v.1.15,2013-04-05 11:34:00,
2013-04-05 06:44:00,27.8,25.2,30.11,NNE,12,0.0,0.0,90,0.00,,,0.00,Wunderground v.1.15,2013-04-05 11:44:00,
2013-04-05 06:54:00,27.6,25.1,30.11,NNE,13,0.0,0.0,90,0.00,,,0.00,Wunderground v.1.15,2013-04-05 11:54:00,
2013-04-05 07:09:00,27.5,25.0,30.11,NNE,12,0.0,0.0,90,0.00,,,0.00,Wunderground v.1.15,2013-04-05 12:09:00,
2013-04-05 07:14:00,27.5,25.0,30.11,NNE,12,0.0,0.0,90,0.00,,,0.00,Wunderground v.1.15,2013-04-05 12:14:00,
2013-04-05 07:24:00,27.8,25.2,30.12,NNE,13,0.0,0.0,90,0.00,,,0.00,Wunderground v.1.15,2013-04-05 12:24:00,
2013-04-05 07:29:00,28.2,25.6,30.12,NNE,12,0.0,0.0,90,0.00,,,0.00,Wunderground v.1.15,2013-04-05 12:29:00,
2013-04-05 07:39:00,29.0,26.7,30.13,NNE,12,0.0,0.0,91,0.00,,,0.00,Wunderground v.1.15,2013-04-05 12:39:00,
2013-04-05 07:49:00,29.8,27.5,30.13,NNE,12,0.0,0.0,91,0.00,,,0.00,Wunderground v.1.15,2013-04-05 12:49:00,
2013-04-05 07:54:00,30.6,28.3,30.13,NNE,13,0.0,0.0,91,0.00,,,0.00,Wunderground v.1.15,2013-04-05 12:54:00,
2013-04-05 08:05:00,33.1,30.8,30.12,NNE,12,0.0,0.0,91,0.00,,,0.00,Wunderground v.1.15,2013-04-05 13:05:00,
2013-04-05 08:14:00,34.9,32.5,30.12,NNE,12,0.0,0.0,91,0.00,,,0.00,Wunderground v.1.15,2013-04-05 13:14:00,
2013-04-05 08:24:00,36.8,33.6,30.12,NNE,12,0.0,0.0,88,0.00,,,0.00,Wunderground v.1.15,2013-04-05 13:24:00,
2013-04-05 08:29:00,37.9,34.4,30.12,NNE,12,0.0,0.0,87,0.00,,,0.00,Wunderground v.1.15,2013-04-05 13:29:00,
2013-04-05 08:34:00,39.3,34.9,30.12,NNE,13,0.0,0.0,84,0.00,,,0.00,Wunderground v.1.15,2013-04-05 13:34:00,
2013-04-05 08:44:00,41.6,35.6,30.12,NNE,12,0.0,0.0,79,0.00,,,0.00,Wunderground v.1.15,2013-04-05 13:44:00,
2013-04-05 08:54:00,43.8,35.7,30.12,NNE,13,0.0,0.0,73,0.00,,,0.00,Wunderground v.1.15,2013-04-05 13:54:00,
2013-04-05 08:59:00,44.6,35.4,30.12,NNE,13,0.0,0.0,70,0.00,,,0.00,Wunderground v.1.15,2013-04-05 13:59:00,
2013-04-05 09:04:00,45.5,34.8,30.11,NNE,13,0.0,0.0,66,0.00,,,0.00,Wunderground v.1.15,2013-04-05 14:04:00,
2013-04-05 09:14:00,46.5,33.8,30.11,NNE,12,0.0,0.0,61,0.00,,,0.00,Wunderground v.1.15,2013-04-05 14:14:00,
2013-04-05 09:19:00,47.4,35.4,30.12,NNE,13,0.0,1.0,63,0.00,,,0.00,Wunderground v.1.15,2013-04-05 14:19:00,
2013-04-05 09:29:00,49.1,37.8,30.12,NNE,13,0.0,0.0,65,0.00,,,0.00,Wunderground v.1.15,2013-04-05 14:29:00,
2013-04-05 09:34:00,49.8,36.9,30.12,NNE,13,0.0,0.0,61,0.00,,,0.00,Wunderground v.1.15,2013-04-05 14:34:00,
2013-04-05 09:45:00,51.7,38.7,30.12,NNE,13,0.0,0.0,61,0.00,,,0.00,Wunderground v.1.15,2013-04-05 14:45:00,
2013-04-05 09:54:00,52.9,39.0,30.11,NNE,13,0.0,1.0,59,0.00,,,0.00,Wunderground v.1.15,2013-04-05 14:54:00,
2013-04-05 09:59:00,53.9,39.0,30.11,NNE,13,0.0,0.0,57,0.00,,,0.00,Wunderground v.1.15,2013-04-05 14:59:00,
2013-04-05 10:05:00,55.3,41.2,30.12,NNE,16,0.0,0.0,59,0.00,,,0.00,Wunderground v.1.15,2013-04-05 15:05:00,
2013-04-05 10:14:00,57.0,40.0,30.12,NNE,16,0.0,0.0,53,0.00,,,0.00,Wunderground v.1.15,2013-04-05 15:14:00,
2013-04-05 10:24:00,58.3,39.7,30.12,NNE,24,0.0,2.0,50,0.00,,,0.00,Wunderground v.1.15,2013-04-05 15:24:00,
2013-04-05 10:30:00,59.0,36.5,30.12,NNW,329,1.0,1.0,43,0.00,,,0.00,Wunderground v.1.15,2013-04-05 15:30:00,
2013-04-05 10:39:00,59.9,36.1,30.12,West,273,1.0,3.0,41,0.00,,,0.00,Wunderground v.1.15,2013-04-05 15:39:00,
2013-04-05 10:49:00,61.2,38.5,30.12,West,273,0.0,0.0,43,0.00,,,0.00,Wunderground v.1.15,2013-04-05 15:49:00,
2013-04-05 10:59:00,62.1,38.1,30.12,West,273,0.0,2.0,41,0.00,,,0.00,Wunderground v.1.15,2013-04-05 15:59:00,
2013-04-05 11:04:00,62.1,36.8,30.12,West,273,1.0,2.0,39,0.00,,,0.00,Wunderground v.1.15,2013-04-05 16:04:00,
2013-04-05 11:14:00,62.6,39.2,30.12,SSW,213,1.0,2.0,42,0.00,,,0.00,Wunderground v.1.15,2013-04-05 16:14:00,
2013-04-05 11:24:00,62.6,35.3,30.12,SSW,213,1.0,3.0,36,0.00,,,0.00,Wunderground v.1.15,2013-04-05 16:24:00,
2013-04-05 11:35:00,62.7,33.2,30.12,WSW,241,1.0,3.0,33,0.00,,,0.00,Wunderground v.1.15,2013-04-05 16:35:00,
2013-04-05 11:44:00,63.5,36.0,30.12,WSW,240,0.0,1.0,36,0.00,,,0.00,Wunderground v.1.15,2013-04-05 16:44:00,
2013-04-05 11:49:00,63.9,30.1,30.12,WSW,237,1.0,3.0,28,0.00,,,0.00,Wunderground v.1.15,2013-04-05 16:49:00,
2013-04-05 11:59:00,63.9,35.0,30.12,South,173,2.0,4.0,34,0.00,,,0.00,Wunderground v.1.15,2013-04-05 16:59:00,
2013-04-05 12:04:00,63.9,35.7,30.11,South,171,2.0,4.0,35,0.00,,,0.00,Wunderground v.1.15,2013-04-05 17:04:00,
2013-04-05 12:09:00,63.9,32.6,30.11,SSW,201,2.0,3.0,31,0.00,,,0.00,Wunderground v.1.15,2013-04-05 17:09:00,
2013-04-05 12:19:00,64.5,32.4,30.10,ESE,108,1.0,2.0,30,0.00,,,0.00,Wunderground v.1.15,2013-04-05 17:19:00,
2013-04-05 12:29:00,65.0,33.6,30.10,South,181,1.0,1.0,31,0.00,,,0.00,Wunderground v.1.15,2013-04-05 17:29:00,
2013-04-05 12:39:00,65.2,33.8,30.10,ESE,117,0.0,0.0,31,0.00,,,0.00,Wunderground v.1.15,2013-04-05 17:39:00,
2013-04-05 12:44:00,65.6,35.7,30.10,East,97,0.0,1.0,33,0.00,,,0.00,Wunderground v.1.15,2013-04-05 17:44:00,
2013-04-05 12:54:00,65.5,36.4,30.09,ENE,65,1.0,1.0,34,0.00,,,0.00,Wunderground v.1.15,2013-04-05 17:54:00,
2013-04-05 13:05:00,64.7,31.7,30.09,West,271,2.0,4.0,29,0.00,,,0.00,Wunderground v.1.15,2013-04-05 18:05:00,
2013-04-05 13:14:00,65.0,35.2,30.09,NE,38,1.0,5.0,33,0.00,,,0.00,Wunderground v.1.15,2013-04-05 18:14:00,
2013-04-05 13:24:00,65.6,37.2,30.08,South,186,1.0,6.0,35,0.00,,,0.00,Wunderground v.1.15,2013-04-05 18:24:00,
2013-04-05 13:34:00,66.0,37.5,30.07,NW,318,2.0,3.0,35,0.00,,,0.00,Wunderground v.1.15,2013-04-05 18:34:00,
2013-04-05 13:44:00,66.3,34.7,30.07,SSE,166,1.0,1.0,31,0.00,,,0.00,Wunderground v.1.15,2013-04-05 18:44:00,
2013-04-05 13:54:00,66.4,35.6,30.07,SSW,213,2.0,2.0,32,0.00,,,0.00,Wunderground v.1.15,2013-04-05 18:54:00,
2013-04-05 13:59:00,66.6,36.6,30.07,South,186,2.0,2.0,33,0.00,,,0.00,Wunderground v.1.15,2013-04-05 18:59:00,
2013-04-05 14:04:00,66.6,38.1,30.06,SW,234,2.0,2.0,35,0.00,,,0.00,Wunderground v.1.15,2013-04-05 19:04:00,
2013-04-05 14:09:00,66.8,38.3,30.06,NNW,338,2.0,2.0,35,0.00,,,0.00,Wunderground v.1.15,2013-04-05 19:09:00,
2013-04-05 14:19:00,67.4,34.9,30.06,SW,221,1.0,1.0,30,0.00,,,0.00,Wunderground v.1.15,2013-04-05 19:19:00,
2013-04-05 14:29:00,67.8,37.6,30.06,WSW,237,2.0,4.0,33,0.00,,,0.00,Wunderground v.1.15,2013-04-05 19:29:00,
2013-04-05 14:34:00,67.6,38.2,30.05,South,188,3.0,4.0,34,0.00,,,0.00,Wunderground v.1.15,2013-04-05 19:34:00,
2013-04-05 14:44:00,68.3,37.3,30.05,SSW,192,1.0,2.0,32,0.00,,,0.00,Wunderground v.1.15,2013-04-05 19:44:00,
2013-04-05 14:54:00,68.6,36.7,30.04,SSE,152,2.0,9.0,31,0.00,,,0.00,Wunderground v.1.15,2013-04-05 19:54:00,
2013-04-05 14:59:00,67.9,35.3,30.04,SSW,209,3.0,5.0,30,0.00,,,0.00,Wunderground v.1.15,2013-04-05 19:59:00,
2013-04-05 15:04:00,67.9,36.9,30.03,SSE,161,2.0,5.0,32,0.00,,,0.00,Wunderground v.1.15,2013-04-05 20:04:00,
2013-04-05 15:09:00,68.4,38.2,30.03,SSE,161,1.0,1.0,33,0.00,,,0.00,Wunderground v.1.15,2013-04-05 20:09:00,
2013-04-05 15:19:00,68.3,36.5,30.02,East,88,2.0,2.0,31,0.00,,,0.00,Wunderground v.1.15,2013-04-05 20:19:00,
2013-04-05 15:29:00,68.8,36.1,30.02,SSW,196,2.0,2.0,30,0.00,,,0.00,Wunderground v.1.15,2013-04-05 20:29:00,
2013-04-05 15:39:00,69.1,38.0,30.01,South,170,2.0,5.0,32,0.00,,,0.00,Wunderground v.1.15,2013-04-05 20:39:00,
2013-04-05 15:49:00,68.9,33.5,30.00,West,260,3.0,3.0,27,0.00,,,0.00,Wunderground v.1.15,2013-04-05 20:49:00,
2013-04-05 16:04:00,68.4,35.7,30.00,West,270,2.0,3.0,30,0.00,,,0.00,Wunderground v.1.15,2013-04-05 21:04:00,
2013-04-05 16:14:00,68.9,37.8,30.00,NNW,330,1.0,2.0,32,0.00,,,0.00,Wunderground v.1.15,2013-04-05 21:14:00,
2013-04-05 16:24:00,69.3,35.7,29.99,WSW,247,1.0,3.0,29,0.00,,,0.00,Wunderground v.1.15,2013-04-05 21:24:00,
2013-04-05 16:34:00,69.4,35.7,29.99,SSW,201,1.0,7.0,29,0.00,,,0.00,Wunderground v.1.15,2013-04-05 21:34:00,
2013-04-05 16:39:00,69.6,35.9,29.99,SSW,205,2.0,3.0,29,0.00,,,0.00,Wunderground v.1.15,2013-04-05 21:39:00,
2013-04-05 16:49:00,69.3,36.5,29.98,South,175,2.0,3.0,30,0.00,,,0.00,Wunderground v.1.15,2013-04-05 21:49:00,
2013-04-05 16:54:00,68.9,37.0,29.98,SSW,205,3.0,3.0,31,0.00,,,0.00,Wunderground v.1.15,2013-04-05 21:54:00,
2013-04-05 17:04:00,69.1,35.5,29.98,SSE,158,2.0,5.0,29,0.00,,,0.00,Wunderground v.1.15,2013-04-05 22:04:00,
2013-04-05 17:09:00,69.1,38.0,29.98,South,179,2.0,2.0,32,0.00,,,0.00,Wunderground v.1.15,2013-04-05 22:09:00,
2013-04-05 17:19:00,69.3,33.9,29.97,ESE,123,2.0,2.0,27,0.00,,,0.01,Wunderground v.1.15,2013-04-05 22:19:00,
2013-04-05 17:29:00,69.1,34.6,29.97,SSW,196,2.0,9.0,28,0.00,,,0.01,Wunderground v.1.15,2013-04-05 22:29:00,
2013-04-05 17:39:00,68.8,33.4,29.97,South,180,4.0,4.0,27,0.00,,,0.01,Wunderground v.1.15,2013-04-05 22:39:00,
2013-04-05 17:44:00,68.6,33.3,29.97,SSW,196,4.0,4.0,27,0.00,,,0.01,Wunderground v.1.15,2013-04-05 22:44:00,
2013-04-05 17:54:00,68.6,34.2,29.96,ESE,113,2.0,4.0,28,0.00,,,0.01,Wunderground v.1.15,2013-04-05 22:54:00,
2013-04-05 18:04:00,68.3,33.9,29.96,South,183,2.0,3.0,28,0.00,,,0.01,Wunderground v.1.15,2013-04-05 23:04:00,
2013-04-05 18:09:00,68.3,33.9,29.96,SE,146,1.0,4.0,28,0.00,,,0.01,Wunderground v.1.15,2013-04-05 23:09:00,
2013-04-05 18:19:00,67.9,33.6,29.96,SSE,149,1.0,1.0,28,0.00,,,0.01,Wunderground v.1.15,2013-04-05 23:19:00,
2013-04-05 18:29:00,67.6,34.2,29.96,SE,134,2.0,2.0,29,0.00,,,0.01,Wunderground v.1.15,2013-04-05 23:29:00,
2013-04-05 18:39:00,67.4,34.9,29.96,South,177,1.0,3.0,30,0.00,,,0.01,Wunderground v.1.15,2013-04-05 23:39:00,
2013-04-05 18:44:00,67.1,35.4,29.96,SSE,158,1.0,3.0,31,0.00,,,0.01,Wunderground v.1.15,2013-04-05 23:44:00,
2013-04-05 18:54:00,66.4,35.6,29.96,South,178,1.0,1.0,32,0.00,,,0.01,Wunderground v.1.15,2013-04-05 23:54:00,
2013-04-05 19:04:00,65.8,35.9,29.96,South,176,1.0,1.0,33,0.00,,,0.01,Wunderground v.1.15,2013-04-06 00:04:00,